カタログに戻る

STARLINK-37540

運用中通信SSO
NORAD 68914·PAYLOAD·🇺🇸 United States

打ち上げ Apr 30, 2026 から Vandenberg Space Force Base

Loading…

次のパス (今後24時間)

TLE

最新Source: CelesTrak SupGP

元期: Sep 14, 2026, 21:25 UTC

1 68914C 26097V   26257.89284722  .00087724  00000+0  27238-2 0  2574
2 68914  97.2852  92.1302 0001616  97.1198 263.6905 15.33387031    15

AllMySatでSTARLINK-37540をリアルタイム追跡

Download on the App Store